Location: Demmingen
(48.6757°N, 10.4375°E)
Time: 23:51:29
(UTC+00:00)

CZ-2C R/B - Pass Details

Date: 09 August 2024
Orbit: 703 x 904 km, 98.2° (Epoch: 07 September)

Event Time Altitude Azimuth Distance (km) Brightness Sun altitude
Rises 01:40:28 0° 12° (NNE) 3,160 7.4 -18.8°
Reaches altitude 10° 01:42:42 10° 10° (N) 2,255 6.4 -18.6°
Maximum altitude 01:47:38 71° 287° (WNW) 810 3.0 -18.1°
Enters shadow 01:50:01 32° 211° (SSW) 1,311 3.6 -17.9°
